Location: Austin
(30.3000°N, 97.7500°W)
Time: 00:14:44
(UTC-05:00)

Lacrosse 5 rocket - Pass Details

Date: 11 June 2024
Orbit: 445 x 572 km, 57.0° (Epoch: 21 June)

Event Time Altitude Azimuth Distance (km) Brightness Sun altitude
Rises 22:15:27 0° 316° (NW) 2,742 6.6 -18.9°
Reaches altitude 10° 22:17:46 10° 310° (NW) 1,828 5.2 -19.2°
Maximum altitude 22:21:45 46° 237° (WSW) 732 2.0 -19.9°
Enters shadow 22:22:45 37° 196° (SSW) 841 2.0 -20.0°
